Content
SEND FEEDBACK

Daily
Averages
Monthly
Summary
United States of America

ELWELL, MICHIGAN


Home > North America > United States > Michigan
Elevation: 745 feet     Latitude: 43 22N     Longitude: 084 40W

WEATHER
 
SELECT A DAY
Number of Records: 432,888;   Date Range: 2/3/97 - 9/20/14
 
SHARE

PRINT THIS DATA

[ ← Previous Day ]
WEATHER ALMANAC - JANUARY 31, 2013
[ Next Day → ]
[ °C ]   °F
Weather ElementAverageHighLow
Temperature20.5 °F26.4 °F (12:32 am)15.8 °F (11:34 pm)
Dewpoint14.4 °F21.6 °F (12:32 am)9.1 °F (5:32 pm)
Humidity77.4 %87 % (11:34 pm)64 % (5:32 pm)
Barometer29.62 in29.87 in (11:54 pm)29.30 in (12:32 am)
Wind Speed15.1 mph26.5 mph (2:30 am)
Wind Gust41.4 mph (2:50 am)
Weather ElementAverage
Visibility8.2 mi
Wind DirectionWNW (276.2 °)

Weather ElementTotal
Precipitation---
Heating Degree Days43.9 (Base 65)
Averaged from 69 records on January 31, 2013
WEATHER CONDITIONS BREAKOUT
WIND DIRECTION BREAKOUT
WEATHER BY HOUR - JANUARY 31, 2013
[ °C ]   °F
Local TimeTemperatureDewpointHumidityBarometerVisibilityWind DirectionWind SpeedGust SpeedPrecipitationEventsConditions
12:32 AM26.4 °F21.6 °F82 %29.30 in10.0 miWest (270°)17.3 mph28.8 mphSnowLight Snow
12:52 AM25.7 °F20.8 °F82 %29.31 in10.0 miWest (270°)18.4 mph25.3 mphMostly Cloudy
1:12 AM25.3 °F19.8 °F79 %29.32 in7.0 miWest (270°)17.3 mph27.6 mphSnowLight Snow
1:32 AM24.8 °F20.1 °F82 %29.33 in10.0 miWest (270°)16.1 mph27.6 mphSnowLight Snow
1:47 AM24.6 °F19.9 °F82 %29.33 in10.0 miWest (270°)20.7 mph28.8 mphSnowLight Snow
2:10 AM24.4 °F18.9 °F79 %29.35 in10.0 miWest (280°)20.7 mph26.5 mphOvercast
2:30 AM23.7 °F16.3 °F73 %29.36 in10.0 miWest (270°)26.5 mph33.4 mphOvercast
2:50 AM23.7 °F16.9 °F75 %29.38 in10.0 miWest (270°)17.3 mph41.4 mphOvercast
3:10 AM23.7 °F16.5 °F74 %29.39 in10.0 miWest (280°)20.7 mph35.7 mphOvercast
3:30 AM23.4 °F16.3 °F75 %29.40 in10.0 miWest (280°)17.3 mph29.9 mphOvercast
3:50 AM23.0 °F17.1 °F78 %29.41 in5.0 miWest (270°)21.9 mph31.1 mphSnowLight Snow
4:13 AM22.8 °F16.7 °F77 %29.41 in10.0 miWest (260°)18.4 mph26.5 mphSnowLight Snow
4:33 AM22.8 °F16.0 °F75 %29.42 in10.0 miWest (270°)23.0 mph32.2 mphOvercast
4:53 AM22.1 °F18.3 °F85 %29.43 in1.2 miWest (270°)16.1 mph24.2 mphSnowLight Snow
5:13 AM21.9 °F16.9 °F81 %29.44 in5.0 miWest (270°)17.3 mph27.6 mphSnowLight Snow
5:33 AM22.1 °F15.6 °F76 %29.46 in10.0 miWest (270°)15.0 mph29.9 mphOvercast
5:53 AM21.9 °F15.8 °F77 %29.46 in10.0 miWest (260°)18.4 mph25.3 mphOvercast
6:13 AM21.7 °F15.6 °F77 %29.48 in10.0 miWest (270°)25.3 mph32.2 mphOvercast
6:33 AM21.4 °F16.3 °F81 %29.49 in3.0 miWest (280°)17.3 mph26.5 mphSnowLight Snow
6:53 AM21.0 °F16.2 °F81 %29.50 in5.0 miWest (270°)13.8 mph28.8 mphSnowLight Snow
7:14 AM21.0 °F14.5 °F76 %29.51 in10.0 miWest (280°)12.7 mph23.0 mphOvercast
7:34 AM20.3 °F16.7 °F86 %29.53 in7.0 miWNW (290°)11.5 mph17.3 mphSnowLight Snow
7:54 AM20.7 °F14.9 °F78 %29.54 in10.0 miWest (280°)19.6 mph25.3 mphSnowLight Snow
8:14 AM20.7 °F15.1 °F79 %29.55 in7.0 miWest (280°)12.7 mph19.6 mphSnowLight Snow
8:34 AM20.8 °F15.4 °F80 %29.56 in10.0 miWest (270°)16.1 mph20.7 mphSnowLight Snow
8:54 AM20.8 °F15.1 °F78 %29.56 in7.0 miWest (270°)12.7 mphSnowLight Snow
9:14 AM20.8 °F14.9 °F78 %29.57 in10.0 miWest (270°)13.8 mph23.0 mphOvercast
9:34 AM21.0 °F14.9 °F77 %29.58 in10.0 miWest (260°)17.3 mph25.3 mphOvercast
9:55 AM21.2 °F14.9 °F77 %29.59 in7.0 miWest (270°)17.3 mph21.9 mphSnowLight Snow
10:30 AM21.7 °F14.5 °F74 %29.61 in10.0 miWest (260°)17.3 mph23.0 mphOvercast
10:50 AM21.4 °F13.1 °F70 %29.62 in10.0 miWest (270°)20.7 mph27.6 mphOvercast
11:10 AM21.9 °F14.0 °F72 %29.63 in10.0 miNW (310°)11.5 mph20.7 mphOvercast
11:30 AM20.7 °F16.0 °F82 %29.64 in10.0 miNW (310°)11.5 mph18.4 mphSnowLight Snow
11:55 AM20.7 °F15.6 °F81 %29.64 in7.0 miWNW (300°)16.1 mphSnowLight Snow
12:11 PM19.6 °F16.0 °F86 %29.65 in1.0 miWNW (300°)17.3 mph23.0 mphSnowLight Snow
12:31 PM19.9 °F14.9 °F81 %29.65 in1.5 miWest (280°)15.0 mph21.9 mphSnowLight Snow
12:51 PM20.3 °F14.7 °F79 %29.65 in5.0 miWest (280°)15.0 mph19.6 mphHaze
1:11 PM20.7 °F14.4 °F77 %29.65 in7.0 miWNW (290°)12.7 mph23.0 mphOvercast
1:31 PM21.2 °F14.0 °F74 %29.66 in10.0 miWNW (290°)12.7 mph20.7 mphOvercast
1:51 PM20.7 °F15.4 °F80 %29.66 in5.0 miWest (270°)8.1 mphSnowLight Snow
2:11 PM21.4 °F11.8 °F67 %29.66 in10.0 miWest (270°)16.1 mph24.2 mphOvercast
2:31 PM20.3 °F15.3 °F81 %29.68 in1.5 miWest (280°)13.8 mphSnowLight Snow
2:51 PM21.0 °F11.8 °F68 %29.68 in10.0 miWNW (300°)19.6 mph27.6 mphOvercast
3:12 PM20.5 °F11.7 °F69 %29.69 in10.0 miWest (270°)18.4 mphOvercast
3:32 PM20.3 °F12.0 °F70 %29.70 in7.0 miWest (280°)16.1 mph24.2 mphOvercast
3:52 PM20.3 °F11.3 °F68 %29.71 in10.0 miWest (280°)16.1 mph21.9 mphOvercast
4:12 PM20.3 °F11.7 °F69 %29.71 in10.0 miWNW (290°)13.8 mph18.4 mphOvercast
4:32 PM19.4 °F11.3 °F71 %29.72 in10.0 miWest (280°)16.1 mph20.7 mphOvercast
4:52 PM19.4 °F9.7 °F66 %29.73 in10.0 miWNW (290°)15.0 mph23.0 mphOvercast
5:12 PM19.4 °F10.0 °F67 %29.74 in10.0 miWNW (290°)12.7 mph17.3 mphOvercast
5:32 PM19.4 °F9.1 °F64 %29.75 in10.0 miWest (280°)16.1 mph23.0 mphOvercast
5:53 PM18.7 °F10.2 °F70 %29.76 in10.0 miWest (280°)11.5 mph21.9 mphOvercast
6:13 PM18.0 °F11.8 °F77 %29.76 in10.0 miWNW (290°)13.8 mphOvercast
6:33 PM18.0 °F11.5 °F76 %29.78 in10.0 miWest (280°)10.4 mph18.4 mphOvercast
6:53 PM18.0 °F11.5 °F76 %29.78 in10.0 miWest (270°)12.7 mph18.4 mphOvercast
7:13 PM17.6 °F11.7 °F78 %29.79 in10.0 miWest (270°)15.0 mph19.6 mphOvercast
7:33 PM17.4 °F11.1 °F76 %29.80 in10.0 miWest (280°)12.7 mph16.1 mphMostly Cloudy
7:53 PM17.4 °F12.0 °F79 %29.81 in10.0 miWest (280°)10.4 mphScattered Clouds
8:13 PM17.4 °F11.3 °F77 %29.81 in10.0 miWest (280°)12.7 mph19.6 mphClear
8:33 PM17.4 °F11.7 °F78 %29.82 in10.0 miWest (280°)11.5 mphMostly Cloudy
8:54 PM17.4 °F11.7 °F78 %29.83 in10.0 miWest (260°)12.7 mph19.6 mphOvercast
9:14 PM17.1 °F12.6 °F82 %29.83 in5.0 miWest (270°)10.4 mphHaze
9:34 PM17.2 °F12.6 °F82 %29.83 in5.0 miWest (270°)10.4 mph17.3 mphSnowLight Snow
10:14 PM16.7 °F13.1 °F86 %29.85 in4.0 miWest (260°)8.1 mphSnowLight Snow
10:34 PM16.7 °F13.1 °F86 %29.85 in4.0 miWest (270°)11.5 mphSnowLight Snow
10:54 PM16.7 °F13.1 °F86 %29.86 in4.0 miWest (270°)10.4 mphSnowLight Snow
11:14 PM16.5 °F13.1 °F86 %29.86 in7.0 miWest (260°)9.2 mphSnowLight Snow
11:34 PM15.8 °F12.6 °F87 %29.86 in10.0 miWest (270°)9.2 mphScattered Clouds
11:54 PM16.2 °F12.9 °F87 %29.87 in10.0 miWest (260°)6.9 mphMostly Cloudy
Hourly data recorded from KAMN, located miles away from Elwell, Michigan







STORIES FROM OUR PARTNERS